Powerscourt Airfield

Jump to: basic info | weather | comments

Related pages: nearby airports | nearby navaids | notams | map

Basic information (top)

Codes: EIPT
Location: lon 53.178301, lat -6.196495, elev 470 ft / 143 m msl
Status: small_airport

Weather (top)

Current conditions for Casement Air Base 12nm (22km) NW (rec'd 2014/10/31 21:00Z):

EIME 312100Z 21011KT 9999 BKN027 13/11 Q1006

Airport forecast for Dublin Airport 15nm (27km) N (rec'd 2014/10/31 18:24Z):

TAF EIDW 311700Z 3118/0118 19013KT 9999 -RA SCT008 BKN025 
      TEMPO 3118/3120 5000 BKN006 
      BECMG 0112/0115 18018G28KT 
      TEMPO 0115/0118 5000 RA BKN010

Latest comments (top)

Reopened: does anybody know about reopening and ppr? [read]

Operations suspended at this airport: Air Accident Investigation Unit Interim ... [read]

re: Powerscourt Airfield: Thank you very much - I've updated the position. [read]

Powerscourt Airfield: Position 53:10.787N 006:12.075W ... [read]

More... (top)

See also NOTAMs and nearby airports and navaids, or visit the Powerscourt Airfield page at the main OurAirports website..